Tillbaka till svenska Fidonet
English   Information   Debug  
FILM   0/18
FNEWS_PUBLISH   4758
FN_SYSOP   42039
FN_SYSOP_OLD1   71952
FTP_FIDO   0/2
FTSC_PUBLIC   0/13899
FUNNY   0/4886
GENEALOGY.EUR   0/71
GET_INFO   105
GOLDED   0/408
HAM   0/16397
HOLYSMOKE   0/6791
HOT_SITES   0/1
HTMLEDIT   0/71
HUB203   466
HUB_100   264
HUB_400   39
HUMOR   0/29
IC   0/2851
INTERNET   0/424
INTERUSER   0/3
IP_CONNECT   719
JAMNNTPD   0/233
JAMTLAND   0/47
KATTY_KORNER   0/41
LAN   0/16
LINUX-USER   0/19
LINUXHELP   0/1155
LINUX   0/22268
LINUX_BBS   0/957
mail   18.68
mail_fore_ok   249
MENSA   199/341
MODERATOR   0/102
MONTE   0/992
MOSCOW_OKLAHOMA   0/1245
MUFFIN   0/783
MUSIC   0/321
N203_STAT   938
N203_SYSCHAT   313
NET203   321
NET204   69
NET_DEV   0/10
NORD.ADMIN   0/101
NORD.CHAT   0/2572
NORD.FIDONET   189
NORD.HARDWARE   0/28
NORD.KULTUR   0/114
NORD.PROG   0/32
NORD.SOFTWARE   0/88
NORD.TEKNIK   0/58
NORD   0/453
OCCULT_CHAT   0/93
OS2BBS   0/787
OS2DOSBBS   0/580
OS2HW   0/42
OS2INET   0/37
OS2LAN   0/134
OS2PROG   0/36
OS2REXX   0/113
OS2USER-L   207
OS2   0/4806
OSDEBATE   18995/18996
PASCAL   0/490
PERL   0/457
PHP   0/45
POINTS   0/405
POLITICS   0/29554
POL_INC   0/14731
PSION   103
R20_ADMIN   1132
R20_AMATORRADIO   0/2
R20_BEST_OF_FIDONET   14
R20_CHAT   0/893
R20_DEPP   0/3
R20_DEV   399
R20_ECHO2   1670
R20_ECHOPRES   0/35
R20_ESTAT   0/719
R20_FIDONETPROG...
...RAM.MYPOINT
  0/2
R20_FIDONETPROGRAM   0/22
R20_FIDONET   0/248
R20_FILEFIND   0/24
R20_FILEFOUND   0/22
R20_HIFI   0/3
R20_INFO2   3561
R20_INTERNET   0/12940
R20_INTRESSE   0/60
R20_INTR_KOM   0/99
R20_KANDIDAT.CHAT   42
R20_KANDIDAT   28
R20_KOM_DEV   112
R20_KONTROLL   0/13360
R20_KORSET   0/18
R20_LOKALTRAFIK   0/24
R20_MODERATOR   0/1852
R20_NC   76
R20_NET200   245
R20_NETWORK.OTH...
...ERNETS
  0/13
R20_OPERATIVSYS...
...TEM.LINUX
  0/44
R20_PROGRAMVAROR   0/1
R20_REC2NEC   534
R20_SFOSM   0/341
R20_SF   0/108
R20_SPRAK.ENGLISH   0/1
R20_SQUISH   107
R20_TEST   2
R20_WORST_OF_FIDONET   20
RAR   0/9
RA_MULTI   106
RA_UTIL   0/162
REGCON.EUR   0/2066
REGCON   0/13
SCIENCE   0/1206
SF   0/239
SHAREWARE_SUPPORT   0/5146
SHAREWRE   0/14
SIMPSONS   0/169
STATS_OLD1   0/2539.065
STATS_OLD2   0/2530
STATS_OLD3   0/2395.095
STATS_OLD4   0/1692.25
SURVIVOR   0/495
SYSOPS_CORNER   0/3
SYSOP   0/84
TAGLINES   0/112
TEAMOS2   0/4530
TECH   0/2617
TEST.444   0/105
TRAPDOOR   0/19
TREK   0/755
TUB   0/290
UFO   0/40
UNIX   0/1316
USA_EURLINK   0/102
USR_MODEMS   0/1
VATICAN   0/2740
VIETNAM_VETS   0/14
VIRUS   0/378
VIRUS_INFO   0/201
VISUAL_BASIC   0/473
WHITEHOUSE   0/5187
WIN2000   0/101
WIN32   0/30
WIN95   0/4291
WIN95_OLD1   0/70272
WINDOWS   0/1517
WWB_SYSOP   0/419
WWB_TECH   0/810
ZCC-PUBLIC   0/1
ZEC   4

 
4DOS   0/134
ABORTION   0/7
ALASKA_CHAT   0/506
ALLFIX_FILE   0/1313
ALLFIX_FILE_OLD1   0/7997
ALT_DOS   0/152
AMATEUR_RADIO   0/1039
AMIGASALE   0/14
AMIGA   0/331
AMIGA_INT   0/1
AMIGA_PROG   0/20
AMIGA_SYSOP   0/26
ANIME   0/15
ARGUS   0/924
ASCII_ART   0/340
ASIAN_LINK   0/651
ASTRONOMY   0/417
AUDIO   0/92
AUTOMOBILE_RACING   0/105
BABYLON5   0/17862
BAG   135
BATPOWER   0/361
BBBS.ENGLISH   0/382
BBSLAW   0/109
BBS_ADS   0/5290
BBS_INTERNET   0/507
BIBLE   0/3563
BINKD   0/1119
BINKLEY   0/215
BLUEWAVE   0/2173
CABLE_MODEMS   0/25
CBM   0/46
CDRECORD   0/66
CDROM   0/20
CLASSIC_COMPUTER   0/378
COMICS   0/15
CONSPRCY   0/899
COOKING   39916
COOKING_OLD1   0/24719
COOKING_OLD2   0/40862
COOKING_OLD3   0/37489
COOKING_OLD4   0/35496
COOKING_OLD5   9370
C_ECHO   0/189
C_PLUSPLUS   0/31
DIRTY_DOZEN   0/201
DOORGAMES   0/2155
DOS_INTERNET   0/196
duplikat   6102
ECHOLIST   6916/18295
EC_SUPPORT   0/318
ELECTRONICS   0/359
ELEKTRONIK.GER   1534
ENET.LINGUISTIC   0/13
ENET.POLITICS   0/4
ENET.SOFT   0/11701
ENET.SYSOP   34210
ENET.TALKS   0/32
ENGLISH_TUTOR   0/2000
EVOLUTION   0/1335
FDECHO   0/217
FDN_ANNOUNCE   0/7068
FIDONEWS   24756
FIDONEWS_OLD1   24498/49742
FIDONEWS_OLD2   0/35949
FIDONEWS_OLD3   0/30874
FIDONEWS_OLD4   14631/37224
FIDO_SYSOP   12913
FIDO_UTIL   0/180
FILEFIND   0/209
FILEGATE   0/212
Möte HAM, 16397 texter
 lista första sista föregående nästa
Text 5462, 993 rader
Skriven 2012-08-10 01:00:44 av Amsat List (1:323/120.0)
Ärende: [keps] orb12222.amsa
============================
[keps] orb12222.amsa

Sender: keps-bounces@amsat.org
Return-Path: <keps-bounces@amsat.org>
X-Rcpt: craig.healy@chowda.com
X-UIDL: 1344574286.3436

SB KEPS @ AMSAT  $ORB12222.O
Orbital Elements  12222.OSCAR

HR AMSAT ORBITAL ELEMENTS FOR OSCAR SATELLITES
FROM WA5QGD FORT WORTH,TX August 9, 2012
Send SUBSCRIBE KEPS/UNSUBSCRIBE KEPS to majordomo@amsat.org only
BID: ORB12222.O
TO ALL RADIO AMATEURS BT

Satellite: AO-07
Catalog number: 07530
Epoch time:      12221.57755816
Element set:    0452
Inclination:      101.4060 deg
RA of node:       216.7721 deg
Eccentricity:    0.0011798
Arg of perigee:   178.8416 deg
Mean anomaly:     181.2686 deg
Mean motion:   12.53590655 rev/day
Decay rate:       -2.7e-07 rev/day^2
Epoch rev:           72661
Checksum:              300

Satellite: FO-29
Catalog number: 24278
Epoch time:      12221.83684200
Element set:    0920
Inclination:      098.5859 deg
RA of node:       315.6083 deg
Eccentricity:    0.0349638
Arg of perigee:   252.9973 deg
Mean anomaly:     103.2581 deg
Mean motion:   13.52986659 rev/day
Decay rate:       1.05e-06 rev/day^2
Epoch rev:           78907
Checksum:              345

Satellite: SO-33
Catalog number: 25509
Epoch time:      12221.81127433
Element set:     294
Inclination:      031.4367 deg
RA of node:       035.8722 deg
Eccentricity:    0.0352678
Arg of perigee:   303.7428 deg
Mean anomaly:     053.0050 deg
Mean motion:   14.28798715 rev/day
Decay rate:       1.49e-06 rev/day^2
Epoch rev:           72018
Checksum:              295

Satellite: RS-22
Catalog number: 27939
Epoch time:      12222.57904691
Element set:     615
Inclination:      097.8098 deg
RA of node:       060.6491 deg
Eccentricity:    0.0014511
Arg of perigee:   094.9133 deg
Mean anomaly:     265.3734 deg
Mean motion:   14.64089908 rev/day
Decay rate:       6.01e-06 rev/day^2
Epoch rev:           47369
Checksum:              329

Satellite: VO-52
Catalog number: 28650
Epoch time:      12222.69407555
Element set:     176
Inclination:      097.5940 deg
RA of node:       251.0278 deg
Eccentricity:    0.0025346
Arg of perigee:   223.6129 deg
Mean anomaly:     136.3081 deg
Mean motion:   14.83088858 rev/day
Decay rate:       8.18e-06 rev/day^2
Epoch rev:           39290
Checksum:              321

Satellite: HO-68
Catalog number: 36122
Epoch time:      12222.80064145
Element set:     723
Inclination:      100.3577 deg
RA of node:       281.0567 deg
Eccentricity:    0.0007511
Arg of perigee:   349.3332 deg
Mean anomaly:     010.7623 deg
Mean motion:   13.16297325 rev/day
Decay rate:       -4.4e-07 rev/day^2
Epoch rev:           12744
Checksum:              266

/EX
SB KEPS @ AMSAT  $ORB12222.D
Orbital Elements  12222.MICROS

HR AMSAT ORBITAL ELEMENTS FOR THE MICROSATS
FROM WA5QGD FORT WORTH,TX August 9, 2012
Send SUBSCRIBE KEPS/UNSUBSCRIBE KEPS to majordomo@amsat.org only
BID: ORB12222.D
TO ALL RADIO AMATEURS BT

Satellite: UO-11
Catalog number: 14781
Epoch time:      12222.85194733
Element set:     943
Inclination:      097.9497 deg
RA of node:       281.8918 deg
Eccentricity:    0.0008233
Arg of perigee:   213.1677 deg
Mean anomaly:     146.9005 deg
Mean motion:   14.80515367 rev/day
Decay rate:       3.60e-06 rev/day^2
Epoch rev:           52787
Checksum:              326

Satellite: AO-16
Catalog number: 20439
Epoch time:      12222.88682560
Element set:     530
Inclination:      098.4335 deg
RA of node:       164.7654 deg
Eccentricity:    0.0011323
Arg of perigee:   005.0068 deg
Mean anomaly:     355.1223 deg
Mean motion:   14.32072631 rev/day
Decay rate:       1.53e-06 rev/day^2
Epoch rev:           17768
Checksum:              277

Satellite: LO-19
Catalog number: 20442
Epoch time:      12222.90169079
Element set:     460
Inclination:      098.3997 deg
RA of node:       167.5986 deg
Eccentricity:    0.0012055
Arg of perigee:   356.4848 deg
Mean anomaly:     003.6242 deg
Mean motion:   14.32289772 rev/day
Decay rate:       1.37e-06 rev/day^2
Epoch rev:           17787
Checksum:              333

Satellite: AO-27
Catalog number: 22825
Epoch time:      12221.88286324
Element set:    0182
Inclination:      098.5775 deg
RA of node:       163.8846 deg
Eccentricity:    0.0009058
Arg of perigee:   121.7358 deg
Mean anomaly:     238.4706 deg
Mean motion:   14.29475819 rev/day
Decay rate:       1.06e-06 rev/day^2
Epoch rev:           98400
Checksum:              332

Satellite: IO-26
Catalog number: 22826
Epoch time:      12221.87363162
Element set:    0931
Inclination:      098.5723 deg
RA of node:       164.2332 deg
Eccentricity:    0.0009586
Arg of perigee:   115.0980 deg
Mean anomaly:     245.1195 deg
Mean motion:   14.29750621 rev/day
Decay rate:        9.7e-07 rev/day^2
Epoch rev:           98413
Checksum:              308

Satellite: GO-32
Catalog number: 25397
Epoch time:      12221.49007637
Element set:    0845
Inclination:      098.3663 deg
RA of node:       197.6379 deg
Eccentricity:    0.0002133
Arg of perigee:   113.9258 deg
Mean anomaly:     246.2146 deg
Mean motion:   14.23286032 rev/day
Decay rate:        3.9e-07 rev/day^2
Epoch rev:           73146
Checksum:              307

Satellite: NO-44
Catalog number: 26931
Epoch time:      12222.83271581
Element set:     108
Inclination:      067.0543 deg
RA of node:       342.0769 deg
Eccentricity:    0.0007238
Arg of perigee:   253.4039 deg
Mean anomaly:     106.6271 deg
Mean motion:   14.29819970 rev/day
Decay rate:       3.00e-06 rev/day^2
Epoch rev:           56691
Checksum:              297

